Time,TemperatureF,DewpointF,PressureIn,WindDirection,WindDirectionDegrees,WindSpeedMPH,WindSpeedGustMPH,Humidity,HourlyPrecipIn,Conditions,Clouds,dailyrainin,SoftwareType,DateUTC
2015-04-17 00:01:00,64.4,59.2,30.08,ENE,67,3.9,4.7,83,0.00,,,0.00,VWS V14.01,2015-04-17 05:01:00,
2015-04-17 00:06:00,64.4,59.2,30.08,ENE,65,3.3,4.7,83,0.00,,,0.00,VWS V14.01,2015-04-17 05:06:00,
2015-04-17 00:11:00,64.2,59.0,30.08,ENE,63,3.9,4.1,83,0.00,,,0.00,VWS V14.01,2015-04-17 05:11:00,
2015-04-17 00:16:00,64.0,58.8,30.05,ENE,61,0.0,4.7,83,0.00,,,0.00,VWS V14.01,2015-04-17 05:16:00,
2015-04-17 00:21:00,63.9,58.7,30.05,ENE,66,3.9,4.1,83,0.00,,,0.00,VWS V14.01,2015-04-17 05:21:00,
2015-04-17 00:26:00,63.5,58.7,30.05,NE,56,3.9,5.2,84,0.00,,,0.00,VWS V14.01,2015-04-17 05:26:00,
2015-04-17 00:31:00,63.5,58.7,30.05,NE,47,4.4,6.4,84,0.00,,,0.00,VWS V14.01,2015-04-17 05:31:00,
2015-04-17 00:36:00,63.3,59.0,30.05,NNE,31,3.9,5.8,86,0.00,,,0.00,VWS V14.01,2015-04-17 05:36:00,
2015-04-17 00:42:00,63.3,59.0,30.05,NE,44,3.3,4.1,86,0.00,,,0.00,VWS V14.01,2015-04-17 05:42:00,
2015-04-17 00:47:00,63.1,58.8,30.05,NE,44,3.9,4.7,86,0.00,,,0.00,VWS V14.01,2015-04-17 05:47:00,
2015-04-17 00:52:00,63.1,58.8,30.05,NE,44,0.0,4.1,86,0.00,,,0.00,VWS V14.01,2015-04-17 05:52:00,
2015-04-17 00:57:00,63.0,58.7,30.05,NE,47,2.8,4.1,86,0.00,,,0.00,VWS V14.01,2015-04-17 05:57:00,
2015-04-17 01:02:00,62.8,58.9,30.05,NE,54,3.3,4.1,87,0.00,,,0.00,VWS V14.01,2015-04-17 06:02:00,
2015-04-17 01:07:00,62.6,58.7,30.05,ENE,71,0.0,4.1,87,0.00,,,0.00,VWS V14.01,2015-04-17 06:07:00,
2015-04-17 01:12:00,62.4,59.0,30.05,ENE,72,0.0,0.0,88,0.00,,,0.00,VWS V14.01,2015-04-17 06:12:00,
2015-04-17 01:17:00,62.4,59.0,30.05,ENE,68,3.3,4.7,88,0.00,,,0.00,VWS V14.01,2015-04-17 06:17:00,
2015-04-17 01:22:00,62.2,58.8,30.05,ENE,70,0.0,4.1,88,0.00,,,0.00,VWS V14.01,2015-04-17 06:22:00,
2015-04-17 01:27:00,62.2,58.8,30.05,ENE,74,3.9,4.7,88,0.00,,,0.00,VWS V14.01,2015-04-17 06:27:00,
2015-04-17 01:32:00,62.2,59.2,30.05,ENE,74,3.3,4.7,90,0.00,,,0.00,VWS V14.01,2015-04-17 06:32:00,
2015-04-17 01:37:00,62.2,59.2,30.05,East,81,3.3,4.1,90,0.00,,,0.00,VWS V14.01,2015-04-17 06:37:00,
2015-04-17 01:42:00,62.2,59.2,30.05,ENE,70,5.0,5.2,90,0.00,,,0.00,VWS V14.01,2015-04-17 06:42:00,
2015-04-17 01:47:00,62.2,59.6,30.05,ENE,69,3.9,4.7,91,0.00,,,0.00,VWS V14.01,2015-04-17 06:47:00,
2015-04-17 01:52:00,62.2,59.6,30.05,ENE,64,3.3,5.2,91,0.00,,,0.00,VWS V14.01,2015-04-17 06:52:00,
2015-04-17 01:57:00,62.2,59.6,30.05,ENE,70,0.0,4.7,91,0.00,,,0.00,VWS V14.01,2015-04-17 06:57:00,
2015-04-17 02:02:00,62.1,59.4,30.05,ENE,70,2.8,4.1,91,0.00,,,0.00,VWS V14.01,2015-04-17 07:02:00,
2015-04-17 02:07:00,62.1,59.4,30.05,ENE,71,3.3,3.5,91,0.00,,,0.00,VWS V14.01,2015-04-17 07:07:00,
2015-04-17 02:12:00,61.9,59.2,30.05,ENE,71,0.0,3.5,91,0.00,,,0.00,VWS V14.01,2015-04-17 07:12:00,
2015-04-17 02:17:00,61.9,59.7,30.05,ENE,73,4.4,4.7,92,0.00,,,0.00,VWS V14.01,2015-04-17 07:17:00,
2015-04-17 02:22:00,61.9,59.7,30.05,ENE,65,3.3,4.7,92,0.00,,,0.00,VWS V14.01,2015-04-17 07:22:00,
2015-04-17 02:27:00,61.7,59.5,30.05,ENE,68,4.4,6.4,92,0.00,,,0.00,VWS V14.01,2015-04-17 07:27:00,
2015-04-17 02:33:00,61.7,59.5,30.05,East,92,0.0,5.2,92,0.00,,,0.00,VWS V14.01,2015-04-17 07:33:00,
2015-04-17 02:38:00,61.7,59.5,30.05,East,96,3.9,4.7,92,0.00,,,0.00,VWS V14.01,2015-04-17 07:38:00,
2015-04-17 02:43:00,61.7,59.9,30.05,ENE,72,0.0,4.7,94,0.00,,,0.00,VWS V14.01,2015-04-17 07:43:00,
2015-04-17 02:48:00,61.5,59.7,30.05,ENE,74,0.0,4.7,94,0.00,,,0.00,VWS V14.01,2015-04-17 07:48:00,
2015-04-17 02:53:00,61.5,59.7,30.05,ENE,74,3.9,4.7,94,0.00,,,0.00,VWS V14.01,2015-04-17 07:53:00,
2015-04-17 02:58:00,61.3,59.5,30.05,ESE,113,6.1,6.4,94,0.00,,,0.00,VWS V14.01,2015-04-17 07:58:00,
2015-04-17 03:03:00,61.2,59.3,30.05,ESE,108,5.0,5.2,94,0.00,,,0.00,VWS V14.01,2015-04-17 08:03:00,
2015-04-17 03:08:00,61.0,59.2,30.05,East,99,3.3,5.2,94,0.00,,,0.00,VWS V14.01,2015-04-17 08:08:00,
2015-04-17 03:13:00,61.0,59.2,30.05,ESE,116,2.8,7.0,94,0.00,,,0.00,VWS V14.01,2015-04-17 08:13:00,
2015-04-17 03:18:00,61.0,59.2,30.05,East,99,3.9,4.7,94,0.00,,,0.00,VWS V14.01,2015-04-17 08:18:00,
2015-04-17 03:23:00,61.0,59.5,30.05,ESE,113,4.4,4.7,95,0.00,,,0.00,VWS V14.01,2015-04-17 08:23:00,
2015-04-17 03:28:00,60.8,59.4,30.05,East,79,3.3,7.0,95,0.00,,,0.00,VWS V14.01,2015-04-17 08:28:00,
2015-04-17 03:33:00,60.8,59.4,30.05,East,100,6.1,6.4,95,0.00,,,0.00,VWS V14.01,2015-04-17 08:33:00,
2015-04-17 03:38:00,60.8,59.4,30.05,ENE,74,3.3,5.2,95,0.00,,,0.00,VWS V14.01,2015-04-17 08:38:00,
2015-04-17 03:43:00,61.0,59.9,30.05,East,86,4.4,5.2,96,0.00,,,0.00,VWS V14.01,2015-04-17 08:43:00,
2015-04-17 03:48:00,61.0,59.9,30.02,ENE,70,4.4,5.2,96,0.00,,,0.00,VWS V14.01,2015-04-17 08:48:00,
2015-04-17 03:53:00,61.0,59.9,30.02,ENE,63,0.0,7.0,96,0.00,,,0.00,VWS V14.01,2015-04-17 08:53:00,
2015-04-17 03:58:00,61.0,59.9,30.02,East,88,0.0,5.2,96,0.00,,,0.00,VWS V14.01,2015-04-17 08:58:00,
2015-04-17 04:03:00,61.0,59.9,30.05,ESE,114,5.5,5.8,96,0.00,,,0.00,VWS V14.01,2015-04-17 09:03:00,
2015-04-17 04:08:00,61.0,59.9,30.05,East,89,4.4,6.4,96,0.00,,,0.00,VWS V14.01,2015-04-17 09:08:00,
2015-04-17 04:13:00,61.0,60.3,30.05,East,90,3.9,5.2,98,0.00,,,0.00,VWS V14.01,2015-04-17 09:13:00,
2015-04-17 04:18:00,60.8,60.1,30.02,ENE,71,3.3,4.1,98,0.00,,,0.00,VWS V14.01,2015-04-17 09:18:00,
2015-04-17 04:23:00,60.8,60.1,30.02,ENE,72,0.0,4.1,98,0.00,,,0.00,VWS V14.01,2015-04-17 09:23:00,
2015-04-17 04:28:00,60.6,60.0,30.02,ENE,72,0.0,0.0,98,0.00,,,0.00,VWS V14.01,2015-04-17 09:28:00,
2015-04-17 04:33:00,60.6,60.0,30.05,ENE,73,0.0,3.5,98,0.00,,,0.00,VWS V14.01,2015-04-17 09:33:00,
2015-04-17 04:38:00,60.4,60.2,30.05,ENE,77,3.3,4.7,99,0.00,,,0.00,VWS V14.01,2015-04-17 09:38:00,
2015-04-17 04:43:00,60.4,60.2,30.05,East,91,3.9,4.1,99,0.00,,,0.00,VWS V14.01,2015-04-17 09:43:00,
2015-04-17 04:48:00,60.4,60.2,30.02,East,82,0.0,4.1,99,0.00,,,0.00,VWS V14.01,2015-04-17 09:48:00,
2015-04-17 04:53:00,60.4,60.4,30.02,East,81,3.3,4.7,100,0.00,,,0.00,VWS V14.01,2015-04-17 09:53:00,
2015-04-17 04:58:00,60.4,60.4,30.02,ENE,75,0.0,3.5,100,0.00,,,0.00,VWS V14.01,2015-04-17 09:58:00,
2015-04-17 05:08:00,60.6,60.6,30.02,ENE,76,0.0,4.1,100,0.00,,,0.00,VWS V14.01,2015-04-17 10:08:00,
2015-04-17 05:13:00,60.6,60.6,30.02,ENE,76,0.0,0.0,100,0.00,,,0.00,VWS V14.01,2015-04-17 10:13:00,
2015-04-17 05:18:00,60.4,60.4,30.02,ENE,76,0.0,0.0,100,0.00,,,0.00,VWS V14.01,2015-04-17 10:18:00,
2015-04-17 05:23:00,60.4,60.4,30.02,ENE,74,0.0,4.1,100,0.00,,,0.00,VWS V14.01,2015-04-17 10:23:00,
2015-04-17 05:28:00,60.3,60.3,30.02,ENE,74,0.0,3.5,100,0.00,,,0.00,VWS V14.01,2015-04-17 10:28:00,
2015-04-17 05:33:00,60.3,60.3,30.02,ENE,70,0.0,4.1,100,0.00,,,0.00,VWS V14.01,2015-04-17 10:33:00,
2015-04-17 05:38:00,60.1,60.1,30.02,ENE,70,0.0,2.9,100,0.00,,,0.00,VWS V14.01,2015-04-17 10:38:00,
2015-04-17 05:43:00,60.1,60.1,30.02,ENE,70,0.0,0.0,100,0.00,,,0.00,VWS V14.01,2015-04-17 10:43:00,
2015-04-17 05:48:00,60.1,60.1,30.05,ENE,69,3.3,4.7,100,0.00,,,0.00,VWS V14.01,2015-04-17 10:48:00,
2015-04-17 05:53:00,60.1,60.1,30.05,ENE,69,2.8,4.1,100,0.00,,,0.00,VWS V14.01,2015-04-17 10:53:00,
2015-04-17 05:58:00,60.1,60.1,30.05,NE,52,4.4,4.7,100,0.00,,,0.00,VWS V14.01,2015-04-17 10:58:00,
2015-04-17 06:03:00,60.1,60.1,30.05,NE,49,3.3,4.1,100,0.00,,,0.00,VWS V14.01,2015-04-17 11:03:00,
2015-04-17 06:08:00,60.1,60.1,30.05,NE,48,0.0,0.0,100,0.00,,,0.00,VWS V14.01,2015-04-17 11:08:00,
2015-04-17 06:13:00,60.1,60.1,30.05,NE,48,0.0,0.0,100,0.00,,,0.00,VWS V14.01,2015-04-17 11:13:00,
2015-04-17 06:18:00,59.9,59.9,30.05,NE,48,0.0,0.0,100,0.00,,,0.00,VWS V14.01,2015-04-17 11:18:00,
2015-04-17 06:23:00,59.9,59.9,30.05,NE,48,0.0,0.0,100,0.00,,,0.00,VWS V14.01,2015-04-17 11:23:00,
2015-04-17 06:28:00,59.7,59.7,30.05,NE,48,0.0,0.0,100,0.00,,,0.00,VWS V14.01,2015-04-17 11:28:00,
2015-04-17 06:33:00,59.7,59.7,30.05,NE,56,2.8,4.1,100,0.00,,,0.00,VWS V14.01,2015-04-17 11:33:00,
2015-04-17 06:38:00,59.7,59.7,30.05,NE,56,0.0,0.0,100,0.00,,,0.00,VWS V14.01,2015-04-17 11:38:00,
2015-04-17 06:43:00,59.7,59.7,30.05,ENE,73,2.8,5.2,100,0.00,,,0.00,VWS V14.01,2015-04-17 11:43:00,
2015-04-17 06:49:00,59.7,59.7,30.05,East,95,0.0,4.1,100,0.00,,,0.00,VWS V14.01,2015-04-17 11:49:00,
2015-04-17 06:54:00,59.9,59.9,30.05,East,101,3.9,4.1,100,0.00,,,0.00,VWS V14.01,2015-04-17 11:54:00,
2015-04-17 06:59:00,59.9,59.9,30.05,East,101,2.8,5.2,100,0.00,,,0.00,VWS V14.01,2015-04-17 11:59:00,
2015-04-17 07:04:00,60.1,60.1,30.05,East,87,0.0,2.9,100,0.00,,,0.00,VWS V14.01,2015-04-17 12:04:00,
2015-04-17 07:09:00,60.3,60.3,30.05,East,101,2.8,4.1,100,0.00,,,0.00,VWS V14.01,2015-04-17 12:09:00,
2015-04-17 07:14:00,60.3,60.3,30.05,East,97,4.4,4.7,100,0.00,,,0.00,VWS V14.01,2015-04-17 12:14:00,
2015-04-17 07:19:00,60.4,60.4,30.05,ESE,107,3.3,5.2,100,0.00,,,0.00,VWS V14.01,2015-04-17 12:19:00,
2015-04-17 07:24:00,60.4,60.4,30.05,East,82,4.4,4.7,100,0.00,,,0.00,VWS V14.01,2015-04-17 12:24:00,
2015-04-17 07:29:00,60.6,60.6,30.05,ESE,122,2.8,5.2,100,0.00,,,0.00,VWS V14.01,2015-04-17 12:29:00,
2015-04-17 07:34:00,60.8,60.8,30.05,ESE,102,3.9,4.1,100,0.00,,,0.00,VWS V14.01,2015-04-17 12:34:00,
2015-04-17 07:39:00,61.0,61.0,30.05,East,96,3.3,4.7,100,0.00,,,0.00,VWS V14.01,2015-04-17 12:39:00,
2015-04-17 07:44:00,61.0,61.0,30.05,ENE,59,0.0,5.2,100,0.00,,,0.00,VWS V14.01,2015-04-17 12:44:00,
2015-04-17 07:49:00,61.0,61.0,30.05,East,82,5.0,5.2,100,0.00,,,0.00,VWS V14.01,2015-04-17 12:49:00,
2015-04-17 07:54:00,61.0,61.0,30.05,ENE,74,5.0,5.2,100,0.00,,,0.00,VWS V14.01,2015-04-17 12:54:00,
2015-04-17 07:59:00,61.2,61.2,30.05,East,89,3.3,5.2,100,0.00,,,0.00,VWS V14.01,2015-04-17 12:59:00,
2015-04-17 08:04:00,61.2,61.2,30.05,ENE,69,3.9,4.7,100,0.00,,,0.00,VWS V14.01,2015-04-17 13:04:00,
2015-04-17 08:09:00,61.3,61.3,30.05,ESE,108,5.0,8.1,100,0.00,,,0.00,VWS V14.01,2015-04-17 13:09:00,
2015-04-17 08:14:00,61.5,61.5,30.05,ENE,72,4.4,6.4,100,0.00,,,0.00,VWS V14.01,2015-04-17 13:14:00,
2015-04-17 08:19:00,61.7,61.7,30.05,SE,124,5.0,8.1,100,0.00,,,0.00,VWS V14.01,2015-04-17 13:19:00,
2015-04-17 08:24:00,62.1,62.1,30.05,ESE,113,3.3,7.6,100,0.00,,,0.00,VWS V14.01,2015-04-17 13:24:00,
2015-04-17 08:29:00,62.2,62.2,30.05,ESE,120,3.3,6.4,100,0.00,,,0.00,VWS V14.01,2015-04-17 13:29:00,
2015-04-17 08:35:00,62.6,62.6,30.05,ESE,114,4.4,7.6,100,0.00,,,0.00,VWS V14.01,2015-04-17 13:35:00,
2015-04-17 08:40:00,63.0,63.0,30.05,North,3,3.9,5.2,100,0.00,,,0.00,VWS V14.01,2015-04-17 13:40:00,
2015-04-17 08:45:00,63.3,63.3,30.08,ESE,102,5.0,5.2,100,0.00,,,0.00,VWS V14.01,2015-04-17 13:45:00,
2015-04-17 08:50:00,63.5,63.5,30.08,ESE,113,5.0,8.1,100,0.00,,,0.00,VWS V14.01,2015-04-17 13:50:00,
2015-04-17 08:55:00,63.7,63.7,30.08,ESE,106,6.7,7.0,100,0.00,,,0.00,VWS V14.01,2015-04-17 13:55:00,
2015-04-17 09:00:00,63.7,63.7,30.08,SE,131,3.9,7.6,100,0.00,,,0.00,VWS V14.01,2015-04-17 14:00:00,
2015-04-17 09:05:00,63.7,63.7,30.08,ESE,113,5.0,6.4,100,0.00,,,0.00,VWS V14.01,2015-04-17 14:05:00,
2015-04-17 09:10:00,63.9,63.9,30.08,East,84,3.3,4.1,100,0.00,,,0.00,VWS V14.01,2015-04-17 14:10:00,
2015-04-17 09:15:00,63.9,63.9,30.08,ESE,115,3.3,3.5,100,0.00,,,0.00,VWS V14.01,2015-04-17 14:15:00,
2015-04-17 09:20:00,63.9,63.9,30.08,SE,144,3.3,6.4,100,0.00,,,0.00,VWS V14.01,2015-04-17 14:20:00,
2015-04-17 09:25:00,63.9,63.6,30.08,SE,134,3.9,6.4,99,0.00,,,0.00,VWS V14.01,2015-04-17 14:25:00,
2015-04-17 09:30:00,63.9,63.6,30.08,ESE,104,5.0,5.2,99,0.00,,,0.00,VWS V14.01,2015-04-17 14:30:00,
2015-04-17 09:35:00,63.7,63.0,30.08,SSE,151,0.0,6.4,98,0.00,,,0.00,VWS V14.01,2015-04-17 14:35:00,
2015-04-17 09:40:00,63.5,62.8,30.08,SW,230,0.0,3.5,98,0.00,,,0.00,VWS V14.01,2015-04-17 14:40:00,
2015-04-17 09:45:00,63.5,62.8,30.08,East,86,0.0,4.1,98,0.00,,,0.00,VWS V14.01,2015-04-17 14:45:00,
2015-04-17 09:50:00,63.5,62.8,30.08,ESE,104,5.0,5.2,98,0.00,,,0.00,VWS V14.01,2015-04-17 14:50:00,
2015-04-17 09:55:00,63.5,62.8,30.08,ESE,111,4.4,7.6,98,0.00,,,0.00,VWS V14.01,2015-04-17 14:55:00,
2015-04-17 10:00:00,63.5,62.8,30.08,ESE,121,3.3,4.7,98,0.00,,,0.00,VWS V14.01,2015-04-17 15:00:00,
2015-04-17 10:05:00,63.3,62.7,30.08,ESE,122,0.0,0.0,98,0.00,,,0.00,VWS V14.01,2015-04-17 15:05:00,
2015-04-17 10:11:00,63.3,62.7,30.08,ESE,121,3.3,7.0,98,0.00,,,0.00,VWS V14.01,2015-04-17 15:11:00,
2015-04-17 10:16:00,63.3,62.7,30.08,SE,131,0.0,4.7,98,0.00,,,0.00,VWS V14.01,2015-04-17 15:16:00,
2015-04-17 10:21:00,63.5,63.2,30.08,SSE,156,0.0,0.0,99,0.00,,,0.00,VWS V14.01,2015-04-17 15:21:00,
2015-04-17 10:31:00,63.7,63.7,30.08,SE,132,0.0,0.0,100,0.00,,,0.00,VWS V14.01,2015-04-17 15:31:00,
2015-04-17 10:36:00,64.0,64.0,30.08,SSE,163,0.0,0.0,100,0.00,,,0.00,VWS V14.01,2015-04-17 15:36:00,
2015-04-17 10:41:00,64.4,64.4,30.08,SSE,163,0.0,0.0,100,0.00,,,0.00,VWS V14.01,2015-04-17 15:41:00,
2015-04-17 10:46:00,64.8,64.8,30.08,SSE,164,3.9,4.1,100,0.00,,,0.00,VWS V14.01,2015-04-17 15:46:00,
2015-04-17 10:51:00,65.1,65.1,30.08,SSE,163,0.0,0.0,100,0.00,,,0.00,VWS V14.01,2015-04-17 15:51:00,
2015-04-17 10:56:00,65.5,65.5,30.08,SW,216,3.3,5.2,100,0.00,,,0.00,VWS V14.01,2015-04-17 15:56:00,
2015-04-17 11:01:00,66.0,66.0,30.08,SW,216,0.0,0.0,100,0.00,,,0.00,VWS V14.01,2015-04-17 16:01:00,
2015-04-17 11:06:00,66.4,66.4,30.08,SW,215,0.0,3.5,100,0.00,,,0.00,VWS V14.01,2015-04-17 16:06:00,
2015-04-17 11:11:00,66.9,66.9,30.08,SW,219,0.0,2.9,100,0.00,,,0.00,VWS V14.01,2015-04-17 16:11:00,
2015-04-17 11:16:00,67.5,67.5,30.11,SW,219,0.0,0.0,100,0.00,,,0.00,VWS V14.01,2015-04-17 16:16:00,
2015-04-17 11:21:00,68.2,68.2,30.11,SW,222,0.0,0.0,100,0.00,,,0.00,VWS V14.01,2015-04-17 16:21:00,
2015-04-17 11:26:00,68.5,68.5,30.11,SW,227,0.0,0.0,100,0.00,,,0.00,VWS V14.01,2015-04-17 16:26:00,
2015-04-17 11:36:00,68.9,68.6,30.11,ENE,58,9.4,9.9,99,0.00,,,0.00,VWS V14.01,2015-04-17 16:36:00,
2015-04-17 11:42:00,68.4,67.7,30.11,North,357,0.0,5.8,98,0.00,,,0.00,VWS V14.01,2015-04-17 16:42:00,
2015-04-17 11:47:00,68.2,67.1,30.11,NE,36,5.0,9.3,96,0.00,,,0.00,VWS V14.01,2015-04-17 16:47:00,
2015-04-17 11:52:00,68.2,67.1,30.11,NE,35,6.7,7.0,96,0.00,,,0.00,VWS V14.01,2015-04-17 16:52:00,
2015-04-17 11:57:00,68.2,66.7,30.11,NNE,25,3.9,8.1,95,0.00,,,0.00,VWS V14.01,2015-04-17 16:57:00,
2015-04-17 12:02:00,68.0,66.1,30.11,North,1,6.7,8.1,94,0.00,,,0.00,VWS V14.01,2015-04-17 17:02:00,
2015-04-17 12:07:00,68.2,66.3,30.11,NNE,31,4.4,7.6,94,0.00,,,0.00,VWS V14.01,2015-04-17 17:07:00,
2015-04-17 12:12:00,68.5,66.7,30.11,North,10,3.9,9.3,94,0.00,,,0.00,VWS V14.01,2015-04-17 17:12:00,
2015-04-17 12:17:00,69.3,67.0,30.08,NNE,31,7.8,8.1,92,0.00,,,0.00,VWS V14.01,2015-04-17 17:17:00,
2015-04-17 12:22:00,69.6,67.3,30.08,North,6,3.9,11.3,92,0.00,,,0.00,VWS V14.01,2015-04-17 17:22:00,
2015-04-17 12:27:00,69.6,66.5,30.08,NNE,21,5.0,8.1,90,0.00,,,0.00,VWS V14.01,2015-04-17 17:27:00,
2015-04-17 12:32:00,69.8,66.7,30.08,North,9,6.7,7.0,90,0.00,,,0.00,VWS V14.01,2015-04-17 17:32:00,
2015-04-17 12:37:00,70.0,66.4,30.08,NE,39,7.2,9.9,88,0.00,,,0.00,VWS V14.01,2015-04-17 17:37:00,
2015-04-17 12:42:00,69.8,65.8,30.08,NE,54,0.0,6.4,87,0.00,,,0.00,VWS V14.01,2015-04-17 17:42:00,
2015-04-17 12:47:00,70.2,66.2,30.08,ENE,57,2.8,8.1,87,0.00,,,0.00,VWS V14.01,2015-04-17 17:47:00,
2015-04-17 12:52:00,70.9,66.9,30.08,NE,41,3.3,7.6,87,0.00,,,0.00,VWS V14.01,2015-04-17 17:52:00,
2015-04-17 12:57:00,71.1,66.6,30.08,NNE,18,5.0,8.1,86,0.00,,,0.00,VWS V14.01,2015-04-17 17:57:00,
2015-04-17 13:02:00,71.8,66.9,30.08,NE,38,8.3,9.3,84,0.00,,,0.00,VWS V14.01,2015-04-17 18:02:00,
2015-04-17 13:07:00,72.3,66.5,30.08,ENE,62,6.1,7.0,82,0.00,,,0.00,VWS V14.01,2015-04-17 18:07:00,
2015-04-17 13:12:00,72.9,66.5,30.08,ENE,67,4.4,7.6,81,0.00,,,0.00,VWS V14.01,2015-04-17 18:12:00,
2015-04-17 13:18:00,73.6,66.3,30.05,North,10,7.8,8.1,78,0.00,,,0.00,VWS V14.01,2015-04-17 18:18:00,
2015-04-17 13:23:00,73.6,64.8,30.05,ENE,70,3.3,4.1,74,0.00,,,0.00,VWS V14.01,2015-04-17 18:23:00,
2015-04-17 13:28:00,73.8,64.4,30.05,NE,49,2.8,7.0,73,0.00,,,0.00,VWS V14.01,2015-04-17 18:28:00,
2015-04-17 13:33:00,73.6,63.2,30.05,ESE,114,7.8,8.1,70,0.00,,,0.00,VWS V14.01,2015-04-17 18:33:00,
2015-04-17 13:38:00,73.2,62.3,30.05,SE,139,3.3,7.0,69,0.00,,,0.00,VWS V14.01,2015-04-17 18:38:00,
2015-04-17 13:43:00,72.9,62.0,30.05,NE,37,7.8,9.9,69,0.00,,,0.00,VWS V14.01,2015-04-17 18:43:00,
2015-04-17 13:48:00,73.2,61.8,30.05,NNE,14,6.7,7.0,67,0.00,,,0.00,VWS V14.01,2015-04-17 18:48:00,
2015-04-17 13:53:00,73.2,61.8,30.05,NE,54,6.7,7.6,67,0.00,,,0.00,VWS V14.01,2015-04-17 18:53:00,
2015-04-17 13:58:00,73.2,61.8,30.05,South,170,5.0,7.0,67,0.00,,,0.00,VWS V14.01,2015-04-17 18:58:00,
2015-04-17 14:03:00,73.0,61.0,30.05,SSW,194,0.0,4.7,66,0.00,,,0.00,VWS V14.01,2015-04-17 19:03:00,
2015-04-17 14:08:00,73.2,61.8,30.05,NE,46,4.4,7.6,67,0.00,,,0.00,VWS V14.01,2015-04-17 19:08:00,
2015-04-17 14:13:00,73.6,61.5,30.05,SE,141,3.9,4.1,66,0.00,,,0.00,VWS V14.01,2015-04-17 19:13:00,
2015-04-17 14:18:00,73.8,61.1,30.05,ENE,70,0.0,7.0,65,0.00,,,0.00,VWS V14.01,2015-04-17 19:18:00,
2015-04-17 14:23:00,74.3,61.7,30.05,SE,127,0.0,5.2,65,0.00,,,0.00,VWS V14.01,2015-04-17 19:23:00,
2015-04-17 14:28:00,74.7,62.6,30.05,NE,47,5.0,7.0,66,0.00,,,0.00,VWS V14.01,2015-04-17 19:28:00,
2015-04-17 14:33:00,75.0,61.7,30.02,NE,48,6.7,7.0,63,0.00,,,0.00,VWS V14.01,2015-04-17 19:33:00,
2015-04-17 14:38:00,75.6,62.2,30.02,SE,137,3.9,7.6,63,0.00,,,0.00,VWS V14.01,2015-04-17 19:38:00,
2015-04-17 14:43:00,75.7,61.2,30.02,NE,54,6.1,7.6,61,0.00,,,0.00,VWS V14.01,2015-04-17 19:43:00,
2015-04-17 14:48:00,75.6,61.7,30.02,ESE,111,2.8,6.4,62,0.00,,,0.00,VWS V14.01,2015-04-17 19:48:00,
2015-04-17 14:53:00,75.9,62.0,30.02,ESE,102,0.0,8.1,62,0.00,,,0.00,VWS V14.01,2015-04-17 19:53:00,
2015-04-17 14:58:00,76.5,62.5,30.02,ESE,115,4.4,8.1,62,0.00,,,0.00,VWS V14.01,2015-04-17 19:58:00,
2015-04-17 15:04:00,76.1,60.9,30.02,ESE,117,7.8,8.1,59,0.00,,,0.00,VWS V14.01,2015-04-17 20:04:00,
2015-04-17 15:09:00,75.4,60.3,30.02,ENE,70,6.7,7.0,59,0.00,,,0.00,VWS V14.01,2015-04-17 20:09:00,
2015-04-17 15:14:00,75.2,60.7,29.99,NNE,14,5.0,7.0,61,0.00,,,0.00,VWS V14.01,2015-04-17 20:14:00,
2015-04-17 15:19:00,75.2,60.7,29.99,ESE,103,4.4,5.2,61,0.00,,,0.00,VWS V14.01,2015-04-17 20:19:00,
2015-04-17 15:24:00,75.6,61.0,29.99,SSE,155,0.0,4.1,61,0.00,,,0.00,VWS V14.01,2015-04-17 20:24:00,
2015-04-17 15:29:00,76.5,62.5,29.99,ENE,66,3.9,4.7,62,0.00,,,0.00,VWS V14.01,2015-04-17 20:29:00,
2015-04-17 15:34:00,77.2,62.0,29.99,NE,54,7.2,8.1,59,0.00,,,0.00,VWS V14.01,2015-04-17 20:34:00,
2015-04-17 15:39:00,77.4,61.5,29.99,NE,39,6.7,8.1,58,0.00,,,0.00,VWS V14.01,2015-04-17 20:39:00,
2015-04-17 15:44:00,77.7,60.5,29.99,ENE,63,6.1,7.6,55,0.00,,,0.00,VWS V14.01,2015-04-17 20:44:00,
2015-04-17 15:49:00,77.4,60.2,29.99,East,91,0.0,7.6,55,0.00,,,0.00,VWS V14.01,2015-04-17 20:49:00,
2015-04-17 15:54:00,77.2,60.0,29.99,SSE,161,5.0,5.8,55,0.00,,,0.00,VWS V14.01,2015-04-17 20:54:00,
2015-04-17 15:59:00,77.4,60.2,29.99,South,169,3.3,5.2,55,0.00,,,0.00,VWS V14.01,2015-04-17 20:59:00,
2015-04-17 16:04:00,77.9,61.3,29.99,South,189,10.0,10.5,57,0.00,,,0.00,VWS V14.01,2015-04-17 21:04:00,
2015-04-17 16:09:00,77.9,58.6,29.99,South,175,10.0,13.7,51,0.00,,,0.00,VWS V14.01,2015-04-17 21:09:00,
2015-04-17 16:14:00,77.5,59.0,29.99,South,179,7.8,9.9,53,0.00,,,0.00,VWS V14.01,2015-04-17 21:14:00,
2015-04-17 16:19:00,77.5,59.7,29.99,SSE,157,3.9,8.1,54,0.00,,,0.00,VWS V14.01,2015-04-17 21:19:00,
2015-04-17 16:24:00,77.5,59.7,29.99,East,84,6.1,14.2,54,0.00,,,0.00,VWS V14.01,2015-04-17 21:24:00,
2015-04-17 16:29:00,77.5,60.3,29.99,ESE,113,6.1,7.0,55,0.00,,,0.00,VWS V14.01,2015-04-17 21:29:00,
2015-04-17 16:34:00,77.5,59.7,29.99,South,183,3.3,10.5,54,0.00,,,0.00,VWS V14.01,2015-04-17 21:34:00,
2015-04-17 16:39:00,77.7,59.8,29.99,ESE,105,4.4,6.4,54,0.00,,,0.00,VWS V14.01,2015-04-17 21:39:00,
2015-04-17 16:45:00,77.7,60.5,29.96,ENE,78,3.9,8.1,55,0.00,,,0.00,VWS V14.01,2015-04-17 21:45:00,
2015-04-17 16:50:00,77.7,59.8,29.96,East,92,5.0,8.1,54,0.00,,,0.00,VWS V14.01,2015-04-17 21:50:00,
2015-04-17 16:55:00,77.2,59.3,29.96,South,178,3.9,8.1,54,0.00,,,0.00,VWS V14.01,2015-04-17 21:55:00,
2015-04-17 17:00:00,77.4,60.2,29.99,SE,145,5.0,5.2,55,0.00,,,0.00,VWS V14.01,2015-04-17 22:00:00,
2015-04-17 17:05:00,78.3,61.0,29.99,East,96,2.8,7.0,55,0.00,,,0.00,VWS V14.01,2015-04-17 22:05:00,
2015-04-17 17:10:00,78.8,60.8,29.99,East,89,0.0,4.1,54,0.00,,,0.00,VWS V14.01,2015-04-17 22:10:00,
2015-04-17 17:15:00,79.0,61.0,29.99,East,80,4.4,7.0,54,0.00,,,0.00,VWS V14.01,2015-04-17 22:15:00,
2015-04-17 17:20:00,79.0,60.3,29.99,ESE,107,0.0,6.4,53,0.00,,,0.00,VWS V14.01,2015-04-17 22:20:00,
2015-04-17 17:25:00,79.2,60.5,29.99,WSW,240,0.0,6.4,53,0.00,,,0.00,VWS V14.01,2015-04-17 22:25:00,
2015-04-17 17:30:00,79.3,60.6,29.99,WSW,241,0.0,3.5,53,0.00,,,0.00,VWS V14.01,2015-04-17 22:30:00,
2015-04-17 17:35:00,79.5,60.1,29.99,East,80,3.3,4.7,51,0.00,,,0.00,VWS V14.01,2015-04-17 22:35:00,
2015-04-17 17:40:00,79.9,60.4,29.99,ESE,104,5.0,6.4,51,0.00,,,0.00,VWS V14.01,2015-04-17 22:40:00,
2015-04-17 17:45:00,79.9,61.1,29.99,NE,48,5.0,7.0,53,0.00,,,0.00,VWS V14.01,2015-04-17 22:45:00,
2015-04-17 17:50:00,79.5,60.8,29.99,NE,50,5.5,7.0,53,0.00,,,0.00,VWS V14.01,2015-04-17 22:50:00,
2015-04-17 17:55:00,79.2,60.5,29.99,NE,51,3.9,7.6,53,0.00,,,0.00,VWS V14.01,2015-04-17 22:55:00,
2015-04-17 18:00:00,78.8,60.1,29.99,NE,43,5.0,7.6,53,0.00,,,0.00,VWS V14.01,2015-04-17 23:00:00,
2015-04-17 18:05:00,78.8,60.1,29.99,East,98,4.4,7.6,53,0.00,,,0.00,VWS V14.01,2015-04-17 23:05:00,
2015-04-17 18:15:00,78.3,59.6,29.96,NE,54,3.3,3.5,53,0.00,,,0.00,VWS V14.01,2015-04-17 23:15:00,
2015-04-17 18:20:00,78.1,60.2,29.96,NE,47,6.7,7.6,54,0.00,,,0.00,VWS V14.01,2015-04-17 23:20:00,
2015-04-17 18:25:00,77.7,59.8,29.96,ENE,62,3.3,6.4,54,0.00,,,0.00,VWS V14.01,2015-04-17 23:25:00,
2015-04-17 18:30:00,77.5,59.7,29.96,ESE,104,2.8,5.2,54,0.00,,,0.00,VWS V14.01,2015-04-17 23:30:00,
2015-04-17 18:35:00,77.0,59.2,29.96,East,82,0.0,4.7,54,0.00,,,0.00,VWS V14.01,2015-04-17 23:35:00,
2015-04-17 18:40:00,76.6,59.5,29.96,ENE,63,4.4,7.6,55,0.00,,,0.00,VWS V14.01,2015-04-17 23:40:00,
2015-04-17 18:45:00,76.5,60.0,29.96,ENE,70,2.8,5.2,57,0.00,,,0.00,VWS V14.01,2015-04-17 23:45:00,
2015-04-17 18:50:00,76.1,59.7,29.96,ENE,58,5.0,7.6,57,0.00,,,0.00,VWS V14.01,2015-04-17 23:50:00,
2015-04-17 18:55:00,75.9,59.5,29.96,ENE,66,3.9,5.2,57,0.00,,,0.00,VWS V14.01,2015-04-17 23:55:00,
2015-04-17 19:00:00,75.7,59.3,29.96,ENE,66,3.3,5.2,57,0.00,,,0.00,VWS V14.01,2015-04-18 00:00:00,
2015-04-17 19:05:00,75.4,59.6,29.96,SE,127,6.7,7.0,58,0.00,,,0.00,VWS V14.01,2015-04-18 00:05:00,
2015-04-17 19:10:00,75.0,59.9,29.96,ESE,108,4.4,7.6,59,0.00,,,0.00,VWS V14.01,2015-04-18 00:10:00,
2015-04-17 19:15:00,74.8,59.8,29.96,ENE,78,3.3,5.2,59,0.00,,,0.00,VWS V14.01,2015-04-18 00:15:00,
2015-04-17 19:20:00,74.8,59.8,29.96,ENE,75,4.4,4.7,59,0.00,,,0.00,VWS V14.01,2015-04-18 00:20:00,
2015-04-17 19:25:00,74.7,60.2,29.96,East,91,3.3,5.2,61,0.00,,,0.00,VWS V14.01,2015-04-18 00:25:00,
2015-04-17 19:30:00,74.5,60.0,29.96,ENE,71,6.7,7.0,61,0.00,,,0.00,VWS V14.01,2015-04-18 00:30:00,
2015-04-17 19:35:00,74.1,59.7,29.96,East,81,3.9,7.0,61,0.00,,,0.00,VWS V14.01,2015-04-18 00:35:00,
2015-04-17 19:40:00,73.9,60.1,29.96,East,81,3.9,5.2,62,0.00,,,0.00,VWS V14.01,2015-04-18 00:40:00,
2015-04-17 19:46:00,73.9,60.1,29.99,East,81,3.9,4.7,62,0.00,,,0.00,VWS V14.01,2015-04-18 00:46:00,
2015-04-17 19:51:00,73.8,60.0,29.99,NE,51,7.2,7.6,62,0.00,,,0.00,VWS V14.01,2015-04-18 00:51:00,
2015-04-17 19:56:00,73.8,60.5,29.99,NNE,12,5.0,8.7,63,0.00,,,0.00,VWS V14.01,2015-04-18 00:56:00,
2015-04-17 20:01:00,73.0,60.5,29.96,East,92,7.2,10.8,65,0.00,,,0.00,VWS V14.01,2015-04-18 01:01:00,
2015-04-17 20:06:00,71.6,60.2,29.96,North,0,5.0,7.6,67,0.00,,,0.00,VWS V14.01,2015-04-18 01:06:00,
2015-04-17 20:11:00,70.2,62.0,29.96,SSE,155,16.9,20.1,75,0.00,,,0.00,VWS V14.01,2015-04-18 01:11:00,
2015-04-17 20:16:00,68.2,60.5,30.02,SSE,164,6.7,10.8,77,0.09,,,0.09,VWS V14.01,2015-04-18 01:16:00,
2015-04-17 20:21:00,66.2,61.0,30.02,WSW,245,3.9,13.1,83,0.21,,,0.21,VWS V14.01,2015-04-18 01:21:00,
2015-04-17 20:26:00,64.9,60.2,30.02,WSW,256,6.1,7.0,84,0.41,,,0.41,VWS V14.01,2015-04-18 01:26:00,
2015-04-17 20:31:00,64.2,60.7,30.02,WNW,300,10.8,13.7,88,0.57,,,0.57,VWS V14.01,2015-04-18 01:31:00,
2015-04-17 20:36:00,64.0,62.2,30.02,WNW,298,13.0,13.7,94,0.73,,,0.73,VWS V14.01,2015-04-18 01:36:00,
2015-04-17 20:41:00,63.5,62.1,30.02,ENE,60,10.0,14.2,95,1.14,,,1.14,VWS V14.01,2015-04-18 01:41:00,
2015-04-17 20:46:00,62.6,61.5,30.05,NE,54,5.0,17.2,96,1.50,,,1.50,VWS V14.01,2015-04-18 01:46:00,
2015-04-17 20:51:00,62.1,62.1,30.05,East,85,7.2,13.1,100,1.83,,,1.83,VWS V14.01,2015-04-18 01:51:00,
2015-04-17 20:56:00,62.8,62.8,30.05,ENE,73,3.9,7.0,100,1.91,,,1.91,VWS V14.01,2015-04-18 01:56:00,
2015-04-17 21:01:00,63.7,63.7,30.02,SSE,161,6.7,9.9,100,1.94,,,1.94,VWS V14.01,2015-04-18 02:01:00,
2015-04-17 21:06:00,64.4,64.4,30.02,East,93,7.2,8.7,100,1.98,,,1.98,VWS V14.01,2015-04-18 02:06:00,
2015-04-17 21:11:00,64.8,64.8,30.02,East,79,0.0,3.5,100,1.98,,,1.98,VWS V14.01,2015-04-18 02:11:00,
2015-04-17 21:16:00,64.9,64.9,30.02,East,79,0.0,0.0,100,1.98,,,1.98,VWS V14.01,2015-04-18 02:16:00,
2015-04-17 21:21:00,64.8,64.8,30.02,East,79,0.0,4.1,100,1.82,,,1.98,VWS V14.01,2015-04-18 02:21:00,
2015-04-17 21:26:00,64.8,64.8,30.02,East,79,0.0,0.0,100,1.84,,,2.00,VWS V14.01,2015-04-18 02:26:00,
2015-04-17 21:31:00,64.6,64.6,30.02,WNW,295,4.4,5.2,100,1.47,,,2.00,VWS V14.01,2015-04-18 02:31:00,
2015-04-17 21:36:00,64.4,64.4,30.02,WNW,295,0.0,0.0,100,1.47,,,2.00,VWS V14.01,2015-04-18 02:36:00,
2015-04-17 21:41:00,64.2,64.2,30.02,WNW,295,0.0,0.0,100,1.01,,,2.00,VWS V14.01,2015-04-18 02:41:00,
2015-04-17 21:46:00,64.2,64.2,30.02,WNW,295,0.0,0.0,100,1.01,,,2.00,VWS V14.01,2015-04-18 02:46:00,
2015-04-17 21:51:00,64.4,64.4,30.02,WNW,295,0.0,0.0,100,0.26,,,2.00,VWS V14.01,2015-04-18 02:51:00,
2015-04-17 21:56:00,64.2,64.2,30.02,WNW,295,0.0,0.0,100,0.26,,,2.00,VWS V14.01,2015-04-18 02:56:00,
2015-04-17 22:01:00,64.0,64.0,30.02,WNW,295,0.0,0.0,100,0.06,,,2.00,VWS V14.01,2015-04-18 03:01:00,
2015-04-17 22:07:00,63.9,63.9,30.02,WNW,295,0.0,0.0,100,0.06,,,2.00,VWS V14.01,2015-04-18 03:07:00,
2015-04-17 22:12:00,63.9,63.9,30.02,WNW,295,0.0,0.0,100,0.02,,,2.00,VWS V14.01,2015-04-18 03:12:00,
2015-04-17 22:17:00,63.9,63.9,30.02,NE,45,0.0,4.7,100,0.02,,,2.00,VWS V14.01,2015-04-18 03:17:00,
2015-04-17 22:22:00,64.0,64.0,30.02,ENE,69,0.0,2.9,100,0.02,,,2.00,VWS V14.01,2015-04-18 03:22:00,
2015-04-17 22:27:00,63.9,63.9,30.02,ENE,70,0.0,0.0,100,0.02,,,2.00,VWS V14.01,2015-04-18 03:27:00,
2015-04-17 22:31:00,63.9,63.9,30.02,ENE,70,0.0,3.5,100,0.00,,,2.00,VWS V14.01,2015-04-18 03:31:00,
2015-04-17 22:36:00,63.5,63.5,30.02,ENE,70,0.0,0.0,100,0.00,,,2.00,VWS V14.01,2015-04-18 03:36:00,
2015-04-17 22:41:00,63.1,63.1,30.02,ENE,71,0.0,0.0,100,0.00,,,2.00,VWS V14.01,2015-04-18 03:41:00,